User: anonymous
Location: Caltech
(34.1382°N, 118.1253°W)
Time: 08:49:34
(UTC-07:00)
Language:

Iridium 91 - Orbit

View from above orbital plane
View from above orbital plane
View from above satellite
View from above satellite

Ground track
Ground track

The orbit data is extracted from the following two-line orbital elements,

1 27372U 02005A   14262.29248556  .00000073  00000-0  18866-4 0  4857
2 27372 086.4021 346.4833 0001065 127.0860 291.2721 14.34214371668027
Epoch (UTC): 19 September 2014 07:01:10
Eccentricity: 0.0001065
inclination: 86.4021°
perigee height: 777 km
apogee height: 778 km
right ascension of ascending node: 346.4833°
argument of perigee: 127.0860°
revolutions per day: 14.34214371
mean anomaly at epoch: 291.2721°
orbit number at epoch: 66802

The dashed part of the orbit path shows where the satellite is in the earth's shadow,  

DLR